Location: Unspecified
(0.0000°N, 0.0000°E)
Time: 00:04:38
(UTC+00:00)

XW-2C - Visible Passes

Search period start: 05 October 2023 00:00
Search period end: 15 October 2023 00:00
Orbit: 468 x 486 km, 97.5° (Epoch: 04 October)

Date Brightness Start Highest point End Pass type
(mag) Time Alt. Az. Time Alt. Az. Time Alt. Az.
05 Oct ? 18:28:29 10° SSW 18:31:46 34° WSW 18:35:01 10° NW visible
08 Oct ? 18:41:57 10° SSW 18:44:43 21° WSW 18:47:28 10° NW visible
09 Oct ? 18:14:25 10° S 18:17:57 63° W 18:21:27 10° NNW visible
11 Oct ? 18:55:25 10° SW 18:57:15 14° WSW 18:59:04 10° WNW visible
12 Oct ? 18:27:03 10° S 18:30:22 37° W 18:33:38 10° NNW visible
